Laredo, TX

11:37 AM CDT en Abril 25, 2018 (GMT -0500)
Laredo International

Tiempo Historia de KLRD - Abril, 2018

Change the Weather History Date:

Lunes, Abril 16, 2018

  Actual Average Record
Temperature  
Temperatura media 74 ° F 76 ° F  
Temperatura máxima 90 ° F 88 ° F 104 ° F (1927)
Temperatura mínima 57 ° F 64 ° F 43 ° F (1983)
Degree Days  
Grados día de calefacción 0 0  
Month to date heating degree days 2 12  
Since 1 July heating degree days 845 925  
Cooling Degree Days 9 11  
Month to date cooling degree days 156 161  
Year to date cooling degree days 567 419  
Growing Degree Days 24 (Base 50)    
Moisture  
Punto de rocío 44 ° F    
Average Humidity 38    
Maximum Humidity 72    
Minimum Humidity 16    
Precipitación  
Precipitación 0.00 pul 0.05 pul 2.15 pul (1979)
Month to date precipitation 0.16 0.62  
Year to date precipitation 2.10 3.58  
Presión al nivel del mar  
Presión al nivel del mar 30.12 pul    
Viento  
Velocidad del viento 14 mph (SE)    
Velocidad máxima del viento 24 mph    
Max Gust Speed 31 mph    
Visibilidad 10 Millas    
Eventos      
T = Trace of Precipitation, MM = Missing Value Source: NWS Daily Summary

Daily Weather History Graph

Daily Weather History Graph

Search for Another Location

Airport or City:

Astronomía

Apr. 16, 2018 Salida Puesta
Hora real 7:12 AM CDT 8:03 PM CDT
Crepúsculo civil 6:48 AM CDT 8:27 PM CDT
Crepúsculo náutico 6:20 AM CDT 8:55 PM CDT
Crepúsculo astronómico 5:51 AM CDT 9:24 PM CDT
Luna 7:51 AM CDT (4/16) 8:54 PM CDT (4/16)
Horas de luz 13h 39m
Horas de luz
12h 51m
Luna nueva, 0% of the Moon is Illuminated
Abr 16
Luna nueva
Abr 22
Cuarto creciente
Abr 29
Luna llena
May 7
Cuarto menguante
May 15
Nueva

Hourly Weather History & Observations

Hora (CDT) Temp. Punto de rocío Humedad Presión Visibilidad Wind Dir Velocidad del viento Velocidad de ráfagas Precip Eventos Condiciones
12:56 AM 66.0 ° F 48.0 ° F 52% 30.18 pul 10.0 mi SE 11.5 mph - N/A   Despejado
1:56 AM 64.0 ° F 46.0 ° F 52% 30.18 pul 10.0 mi SE 10.4 mph - N/A   Despejado
2:56 AM 63.0 ° F 44.1 ° F 50% 30.17 pul 10.0 mi ESE 8.1 mph - N/A   Despejado
3:56 AM 62.1 ° F 44.1 ° F 52% 30.16 pul 10.0 mi ESE 10.4 mph - N/A   Despejado
4:56 AM 60.1 ° F 46.0 ° F 60% 30.16 pul 10.0 mi ESE 9.2 mph - N/A   Despejado
5:56 AM 57.9 ° F 46.9 ° F 67% 30.16 pul 10.0 mi SE 8.1 mph - N/A   Despejado
6:56 AM 57.9 ° F 48.0 ° F 70% 30.17 pul 10.0 mi ESE 9.2 mph - N/A   Despejado
7:56 AM 59.0 ° F 48.0 ° F 67% 30.19 pul 10.0 mi SE 8.1 mph - N/A   Despejado
8:56 AM 66.0 ° F 48.0 ° F 52% 30.21 pul 10.0 mi SSE 16.1 mph - N/A   Despejado
9:56 AM 72.0 ° F 46.0 ° F 40% 30.21 pul 10.0 mi SSE 18.4 mph - N/A   Despejado
10:56 AM 79.0 ° F 39.9 ° F 25% 30.20 pul 10.0 mi SSE 19.6 mph 29.9 mph N/A   Despejado
11:56 AM 82.9 ° F 37.0 ° F 19% 30.19 pul 10.0 mi SSE 24.2 mph 29.9 mph N/A   Despejado
12:56 PM 84.9 ° F 39.0 ° F 20% 30.16 pul 10.0 mi SSE 19.6 mph 26.5 mph N/A   Despejado
1:56 PM 87.1 ° F 37.9 ° F 18% 30.13 pul 10.0 mi SSE 19.6 mph 31.1 mph N/A   Despejado
2:56 PM 89.1 ° F 39.0 ° F 17% 30.10 pul 10.0 mi SSE 17.3 mph 23.0 mph N/A   Despejado
3:56 PM 90.0 ° F 37.9 ° F 16% 30.06 pul 10.0 mi SSE 17.3 mph 26.5 mph N/A   Despejado
4:56 PM 90.0 ° F 44.1 ° F 20% 30.02 pul 10.0 mi SE 19.6 mph 26.5 mph N/A   Despejado
5:56 PM 89.1 ° F 44.1 ° F 21% 30.01 pul 10.0 mi SSE 20.7 mph 26.5 mph N/A   Despejado
6:56 PM 87.1 ° F 43.0 ° F 21% 30.00 pul 10.0 mi SSE 20.7 mph 28.8 mph N/A   Despejado
7:56 PM 82.9 ° F 48.9 ° F 31% 30.01 pul 10.0 mi SE 18.4 mph 25.3 mph N/A   Despejado
8:56 PM 79.0 ° F 48.9 ° F 35% 30.03 pul 10.0 mi SSE 19.6 mph 28.8 mph N/A   Despejado
9:56 PM 75.0 ° F 44.1 ° F 33% 30.05 pul 10.0 mi SSE 18.4 mph 25.3 mph N/A   Despejado
10:56 PM 73.0 ° F 44.1 ° F 35% 30.07 pul 10.0 mi SSE 18.4 mph 25.3 mph N/A   Despejado
11:56 PM 70.0 ° F 48.0 ° F 46% 30.07 pul 10.0 mi SSE 15.0 mph - N/A   Despejado